Location: Dompnac
(44.5644°N, 4.1026°E)
Time: 19:01:54
(UTC+00:00)

USA 234 - Pass Details

Date: 24 January 2021
Orbit: 1100 x 1107 km, 123.0° (Epoch: 01 March)

Event Time Altitude Azimuth Distance (km) Brightness Sun altitude
Exits shadow 19:16:49 38° 26° (NNE) 1,615 3.9 -27.5°
Maximum altitude 19:17:09 39° 19° (NNE) 1,609 3.9 -27.6°
Drops below altitude 10° 19:23:05 10° 314° (NW) 2,967 6.1 -28.6°
Sets 19:25:44 0° 307° (NW) 3,927 6.9 -29.1°
